Weather Service Report


502 
ASUS46 KLOX 180312
RWRCA 

SOUTHERN CALIFORNIA WEATHER ROUNDUP
NATIONAL WEATHER SERVICE OXNARD CALIFORNIA
800 PM PDT THU APR 17 2014

NOTE: "FAIR" INDICATES FEW OR NO CLOUDS BELOW 12,000 FEET WITH NO 
SIGNIFICANT WEATHER AND/OR OBSTRUCTIONS TO VISIBILITY.

  -  STATIONS PRECEEDED BY AN ASTERISK (*) ARE NOT NWS OR FAA 
     STATIONS AND ARE NOT SUBJECT TO NWS AND FAA QUALITY CONTROL.

CAZ041-042-087-180400-
LA AND ORANGE COUNTY COASTAL AREAS

  
CITY           SKY/WX    TMP DP  RH WIND       PRES   REMARKS
L.A. DOWNTOWN  CLOUDY    63  53  70 CALM      29.87R                  
L.A. AIRPORT   CLOUDY    61  54  77 SW6       29.88R                  
LONG BEACH     CLOUDY    61  51  70 S7        29.88R                  

CITY           SKY/WX    TMP DP  RH WIND       PRES   REMARKS
AVALON           N/A     61 N/A N/A S1          N/A                   
FULLERTON      CLOUDY    62  53  72 S5        29.87R                  
*GETTY CENTER    N/A     54  52  94 SW7         N/A                   
HAWTHORNE      CLOUDY    62  50  64 SE5       29.88R                  
*LOS ALAMITOS  CLOUDY    61  54  77 S7        29.88R                  
*REDONDO BEACH   N/A     61  53  73 CALM      29.86R                  
SANTA ANA      CLOUDY    63  53  70 S10       29.88R                  
STA MONICA APT CLOUDY    63  54  72 SW5       29.88R                  
TORRANCE       CLOUDY    63  55  77 SE12      29.88R                  
*UCLA            N/A     59  52  77 SW5       29.85R                  

$$

CAZ547-548-048-180400-
LA COUNTY VALLEYS AND INLAND EMPIRE

  
CITY           SKY/WX    TMP DP  RH WIND       PRES   REMARKS
BURBANK        MOCLDY    61  52  72 S6        29.87R                  
VAN NUYS       MOCLDY    60  52  74 S10       29.86R                  

CITY           SKY/WX    TMP DP  RH WIND       PRES   REMARKS
CORONA AIRPORT CLOUDY    61  53  74 NW6       29.86R                  
*CHATSWORTH      N/A     62  53  73 E5        29.84R                  
CHINO          MOCLDY    61  54  77 W12       29.87R                  
MARCH AFB      CLOUDY    64  53  67 NW10      29.87R                  
ONTARIO        CLOUDY    62  53  72 W10       29.86R                  
*PASADENA        N/A     61  55  82 E5          N/A                   
RIVERSIDE      CLOUDY    63  53  70 VRB5      29.86R                  
SAN BERNARDINO MOCLDY    64  48  55 W9        29.87R HAZE             
*SAN GABRIEL     N/A     61  52  71 SW3       29.85R                  
*WHITEMAN AP   CLOUDY    59  52  77 SE8       29.90R                  
*WOODLAND HILL   N/A     59  52  77 SE6         N/A                   

$$

CAZ054-055-180400-
LA AND SAN BERNARDINO COUNTY MOUNTAINS

  
CITY           SKY/WX    TMP DP  RH WIND       PRES   REMARKS
*BIG BEAR AIRP CLOUDY    54  32  43 SW3       30.04S                  
MT WILSON NWS    N/A     54  34  47 MISG        N/A                   
SANDBERG       CLOUDY    58  48  69 S14       29.93S                  
*WARM SPRINGS    N/A     57  47  69 S6          N/A                   

$$

CAZ028-029-059-060-099-180400-
ANTELOPE VALLEY AND SURROUNDING AREAS

  
CITY           SKY/WX    TMP DP  RH WIND       PRES   REMARKS
LANCASTER      CLOUDY    66  46  48 W16       29.83R                  
PALMDALE       CLOUDY    69  40  34 W8        29.83R                  

CITY           SKY/WX    TMP DP  RH WIND       PRES   REMARKS
29 PALMS       CLOUDY    76  36  23 S16       29.87R                  
BARSTOW/DAGGET CLOUDY    78  30  17 NE9       29.77R                  
BISHOP         CLOUDY    71  20  14 E6        29.77S                  
CHINA LAKE     CLOUDY    78  34  20 S13       29.76S                  
EDWARDS AFB    CLOUDY    71  39  30 W17       29.79R                  
MOJAVE         FAIR      72  27  18 SW12      29.83S                  
NEEDLES        MOCLDY    87  17   7 SW9       29.77S                  
VICTORVILLE    CLOUDY    72  43  35 S17G23    29.84R                  

$$

CAZ039-040-180400-
VENTURA AND SANTA BARBARA COUNTY COAST

  
CITY           SKY/WX    TMP DP  RH WIND       PRES   REMARKS
CAMARILLO      MOCLDY    60  53  77 SW6       29.86R                  
NWS OXNARD       N/A     60  53  78 S7        29.87R                  
OXNARD AIRPORT CLOUDY    60  53  77 SW6       29.87R                  
*POINT MUGU    CLOUDY    63  54  72 S8        29.87R HAZE             
SBA APT/GOLETA CLOUDY    58  52  80 SW5       29.84S                  
*SANTA BARBARA   N/A     60  52  74 CALM      29.94R                  
*VENTURA         N/A     61  52  71 SW3       29.93R                  

$$

CAZ044-045-180400-
VENTURA COUNTY VALLEYS

  
CITY           SKY/WX    TMP DP  RH WIND       PRES   REMARKS
*SIMI VALLEY     N/A     59  54  82 CALM      29.83R                  
*OJAI            N/A     59  52  76 CALM      29.81R                  
*FILLMORE        N/A     61  54  76 CALM      29.77R                  

$$

CAZ053-180400-
VENTURA COUNTY MOUNTAINS

  
CITY           SKY/WX    TMP DP  RH WIND       PRES   REMARKS
*LOCKWOOD VLY    N/A     54  32  43 MISG        N/A                   
*ROSE VALLEY     N/A     59  52  77 MISG        N/A                   

$$

CAZ034-035-036-180400-
CENTRAL COAST AND SANTA YNEZ VALLEY

  
CITY           SKY/WX    TMP DP  RH WIND       PRES   REMARKS
SAN LUIS OBISP CLOUDY    56  51  84 NW10      29.87R                  
SANTA MARIA    CLOUDY    57  50  77 NW8       29.88R                  

CITY           SKY/WX    TMP DP  RH WIND       PRES   REMARKS
*CAL POLY SLO    N/A     57  54  88 SW7         N/A                   
*CAMBRIA         N/A     52  50  92 N5        29.76S                  
*LOMPOC        CLOUDY    57  48  72 NW8       29.88R                  
*PISMO BEACH     N/A     56  53  90 W3        29.88S                  
*SANTA YNEZ    FAIR      55  52  88 W5        29.86R                  

$$

CAZ037-038-051-180400-
SAN LUIS OBISPO COUNTY INTERIOR AND CUYAMA VALLEY

  
CITY           SKY/WX    TMP DP  RH WIND       PRES   REMARKS
*CUYAMA          N/A     66  45  47 CALM      29.67R                  
PASO ROBLES    PTCLDY    57  49  74 SW12      29.83R                  

$$

CAZ032-033-061-180400-
SOUTHERN DESERTS

  
CITY           SKY/WX    TMP DP  RH WIND       PRES   REMARKS
BLYTHE         CLOUDY    83  38  20 S12       29.77R                  
IMPERIAL       CLOUDY    79  40  24 SE9       29.75R                  
PALM SPRINGS   CLOUDY    80  46  30 E5        29.79R                  
THERMAL        CLOUDY    77  53  43 SE6       29.74R                  

$$

ELSEWHERE ACROSS THE WESTERN UNITED STATES AND MEXICO

  
CITY           SKY/WX    TMP DP  RH WIND       PRES   REMARKS
DENVER, CO     PTCLDY    48  33  56 S15       30.00R                  
GRAND CANYON,  PTCLDY    53  17  24 CALM      30.08R                  
HONOLULU, HI   MOSUNNY   82  64  54 NE9       30.04S                  
KAHULUI, MAUI  MOSUNNY   81  66  61 NE18G31   30.01R                  
LAKE TAHOE, CA MOCLDY    56  37  49 S9        29.94R                  
LAS VEGAS, NV  CLOUDY    83  20   9 S15G25    29.75R                  
MAMMOTH LAKES, FAIR      57  21  24 SW16G23   29.98R                  
MEXICO CITY, M PTCLDY    63  46  55 NE5       30.27R                  
PHOENIX, AZ    MOCLDY    89  21   8 N6        29.77S                  
PORTLAND, OR   PTCLDY    55  51  86 SW16      29.89R                  
RENO, NV       CLOUDY    66  36  32 W22G30    29.83R                  
SALT LAKE CITY PTCLDY    63  28  26 S6        29.83F                  
SAN DIEGO, CA  CLOUDY    62  52  69 S8        29.91R                  
SAN FRANCISCO, PTCLDY    60  47  61 W18       29.85R                  
SAN JOSE, CA   PTCLDY    62  48  60 N7        29.86S                  
SEATTLE, WA    RAIN      51  48  89 CALM      29.74S FOG              
TIJUANA, MEX   CLOUDY    59  50  72 SW7       29.92R                  

$$
  
STATION/POSITION TIME  TEMP    WIND        PRES    VSBY  WAVE
                       AIR SEA DIR/SP/G                  HT/PER
                 (UTC) (F)     (DEG/KT/KT) (MB)    (MI)  (FT/S)
POINT ARGUELLO B NOT AVBL
WEST SANTA BARBA 0300   55 55  320/ 12/ 14 1010.8R         6/11
POINT CONCEPTION NOT AVBL
EAST SANTA BARBA NOT AVBL
SANTA MONICA BAY 0300   60 61  170/  6/  8 1011.2R         3/13

Return to Home page


Western Regional Climate Center, wrcc@dri.edu